Location: Wawayanda State Park
(41.1833°N, 74.4333°W)
Time: 16:50:50
(UTC-04:00)

RESURS DK-1 - Visible Passes

Search period start: 25 June 2017 00:00
Search period end: 05 July 2017 00:00
Orbit: 555 x 565 km, 69.9° (Epoch: 25 June)

Date Brightness Start Highest point End Pass type
(mag) Time Alt. Az. Time Alt. Az. Time Alt. Az.
25 Jun 4.3 21:15:36 10° N 21:18:35 19° NE 21:21:32 10° E visible
25 Jun 3.2 22:52:53 10° NW 22:56:50 41° WSW 22:58:06 32° SSW visible
26 Jun 3.9 21:13:53 10° N 21:17:18 24° NE 21:20:42 10° ESE visible
26 Jun 3.8 22:51:42 10° NW 22:55:22 30° WSW 22:56:54 23° SW visible
27 Jun 3.5 21:12:15 10° N 21:15:59 31° ENE 21:19:43 10° ESE visible
27 Jun 4.3 22:50:36 10° NW 22:53:52 22° WSW 22:55:44 17° SW visible
28 Jun 3.1 21:10:41 10° NNW 21:14:40 41° ENE 21:18:36 10° SE visible
28 Jun 4.7 22:49:43 10° WNW 22:52:21 17° WSW 22:54:37 11° SW visible
29 Jun 2.6 21:09:11 10° NNW 21:13:18 56° ENE 21:17:23 10° SE visible
29 Jun 5.0 22:49:12 10° WNW 22:50:49 12° W 22:52:27 10° SW visible
30 Jun 2.4 21:07:44 10° NNW 21:11:55 78° ENE 21:16:04 10° SSE visible
01 Jul 2.5 21:06:21 10° NNW 21:10:31 76° WSW 21:14:39 10° SSE visible
02 Jul 3.0 21:05:00 10° NW 21:09:05 54° WSW 21:13:08 10° S visible
03 Jul 3.7 21:03:44 10° NW 21:07:38 39° WSW 21:11:30 10° S visible
04 Jul 4.2 21:02:33 10° NW 21:06:09 28° WSW 21:09:44 10° SSW visible
